Simultaneous Nadir Overpasses (SNOs) Predictions

Prediction of SNOs between AQUA and NPP Satellite Orbit:

Table of predicted SNOs for the next 14.0 days since TLE Epoch: 10/5/2018
Index Date (AQUA) Time (AQUA) Lat,Lon (AQUA) SZA (AQUA ) Date (NPP) Time (NPP) Lat,Lon (NPP) SZA (NPP ) Distance(km) Time Diff (sec)
1 10/07/2018 21:49:02 75.26, 89.66 102.95 10/07/2018 21:48:30 75.26, 89.64 102.99 0.63 32
2 10/07/2018 22:38:09 -76.28, -99.68 78.14 10/07/2018 22:38:54 -76.27, -99.77 78.16 2.52 45
3 10/10/2018 14:05:17 75.91,-152.61 103.21 10/10/2018 14:05:10 75.91,-152.55 103.20 1.96 7
4 10/10/2018 14:54:27 -76.76, 17.82 77.73 10/10/2018 14:55:37 -76.76, 17.82 77.79 0.28 70
5 10/13/2018 05:32:37 -75.10, 153.33 75.00 10/13/2018 05:31:38 -75.10, 153.40 74.96 2.01 59
6 10/13/2018 06:21:43 76.05, -36.31 104.01 10/13/2018 06:22:02 76.04, -36.34 104.00 0.84 19
7 10/15/2018 21:49:03 -75.24, -90.40 74.22 10/15/2018 21:48:30 -75.24, -90.44 74.18 1.20 33
8 10/15/2018 22:37:59 76.66, 81.60 104.26 10/15/2018 22:38:43 76.67, 81.69 104.20 2.62 44
9 10/18/2018 14:05:18 -75.93, 27.44 74.02 10/18/2018 14:05:10 -75.93, 27.50 74.03 1.81 8




NCC Satellite Simultaneous Nadir Overpasses (SNOs) Prediction Service
